CTV986 WIPP-WIII

Flight info

Callsign CTV986
Flight time 1h 3m
Altitude 27000
Route UDOKO T5 BUNIK
Aircraft A320/M-SDE2E3FGHIRWY/LB1

Departure

Time 2026-04-22 02:01
Airport Sultan Mahmud Badaruddin II Airport (WIPP)

Arrival

Time 2026-04-22 03:04
Airport Soekarno-Hatta International Airport (WIII)
Time Latitude Longitude Altitude Speed Heading
2026-04-22 01:39 -2.89608 104.70439 26 ft 0 kts 23°
2026-04-22 01:53 -2.89631 104.70429 31 ft 4 kts 23°
2026-04-22 01:53 -2.89656 104.70418 30 ft 4 kts 23°
2026-04-22 01:53 -2.89677 104.70410 26 ft 4 kts 36°
2026-04-22 01:54 -2.89688 104.70391 26 ft 4 kts 96°
2026-04-22 01:54 -2.89683 104.70369 26 ft 1 kts 112°
2026-04-22 01:57 -2.89690 104.70386 31 ft 8 kts 112°
2026-04-22 01:57 -2.89714 104.70443 31 ft 8 kts 112°
2026-04-22 01:58 -2.89734 104.70492 30 ft 7 kts 112°
2026-04-22 01:58 -2.89757 104.70541 30 ft 10 kts 126°
2026-04-22 01:58 -2.89821 104.70545 26 ft 9 kts 201°
2026-04-22 01:58 -2.89881 104.70544 23 ft 9 kts 146°
2026-04-22 01:59 -2.89919 104.70622 21 ft 16 kts 112°
2026-04-22 01:59 -2.89963 104.70726 21 ft 17 kts 112°
2026-04-22 01:59 -2.90012 104.70842 19 ft 19 kts 113°
2026-04-22 01:59 -2.90061 104.70959 19 ft 18 kts 113°
2026-04-22 02:00 -2.90131 104.71055 18 ft 17 kts 151°
2026-04-22 02:00 -2.90218 104.71022 19 ft 13 kts 223°
2026-04-22 02:00 -2.90241 104.70967 22 ft 7 kts 295°
2026-04-22 02:00 -2.90235 104.70952 19 ft 5 kts 292°
2026-04-22 02:01 -2.90128 104.70694 21 ft 78 kts 293°
2026-04-22 02:01 -2.89832 104.69998 22 ft 137 kts 293°
2026-04-22 02:01 -2.89398 104.68973 129 ft 174 kts 293°
2026-04-22 02:01 -2.88933 104.67846 777 ft 178 kts 292°
2026-04-22 02:02 -2.88629 104.67090 1295 ft 176 kts 292°
2026-04-22 02:02 -2.88174 104.65958 1993 ft 176 kts 291°
2026-04-22 02:02 -2.87531 104.64847 2315 ft 198 kts 320°
2026-04-22 02:02 -2.86187 104.64379 2553 ft 222 kts
2026-04-22 02:03 -2.84719 104.65000 2851 ft 246 kts 44°
2026-04-22 02:03 -2.83761 104.66502 3320 ft 267 kts 68°
2026-04-22 02:03 -2.83193 104.68295 4117 ft 273 kts 76°
2026-04-22 02:03 -2.82745 104.70156 4998 ft 277 kts 77°
2026-04-22 02:04 -2.81782 104.73940 6733 ft 284 kts 75°
2026-04-22 02:04 -2.81220 104.75843 7560 ft 287 kts 73°
2026-04-22 02:04 -2.80609 104.77764 8348 ft 291 kts 72°
2026-04-22 02:05 -2.79971 104.79702 9099 ft 295 kts 72°
2026-04-22 02:05 -2.79315 104.81659 9838 ft 299 kts 72°
2026-04-22 02:05 -2.78676 104.83627 10540 ft 303 kts 76°
2026-04-22 02:05 -2.78402 104.85754 10962 ft 319 kts 91°
2026-04-22 02:06 -2.78760 104.88018 11134 ft 342 kts 108°
2026-04-22 02:06 -2.79674 104.90265 11541 ft 354 kts 113°
2026-04-22 02:06 -2.80632 104.92554 12155 ft 359 kts 112°
2026-04-22 02:06 -2.81585 104.94877 12806 ft 363 kts 112°
2026-04-22 02:07 -2.82538 104.97228 13449 ft 366 kts 111°
2026-04-22 02:07 -2.83496 104.99596 14085 ft 369 kts 111°
2026-04-22 02:07 -2.84464 105.01982 14720 ft 371 kts 111°
2026-04-22 02:07 -2.85598 105.04312 15325 ft 375 kts 122°
2026-04-22 02:08 -2.87216 105.06359 15897 ft 378 kts 135°
2026-04-22 02:08 -2.89279 105.08007 16475 ft 381 kts 148°
2026-04-22 02:08 -2.91671 105.09156 17028 ft 385 kts 160°
2026-04-22 02:08 -2.94201 105.10052 17556 ft 387 kts 156°
2026-04-22 02:09 -2.96594 105.11307 18084 ft 389 kts 149°
2026-04-22 02:09 -2.98943 105.12667 18604 ft 391 kts 149°
2026-04-22 02:09 -3.01304 105.14032 19102 ft 394 kts 149°
2026-04-22 02:09 -3.03690 105.15407 19575 ft 397 kts 149°
2026-04-22 02:10 -3.06101 105.16794 20039 ft 400 kts 149°
2026-04-22 02:10 -3.08526 105.18187 20479 ft 403 kts 149°
2026-04-22 02:10 -3.10961 105.19591 20906 ft 406 kts 149°
2026-04-22 02:10 -3.13418 105.21010 21328 ft 409 kts 149°
2026-04-22 02:11 -3.15892 105.22440 21740 ft 412 kts 149°
2026-04-22 02:11 -3.18390 105.23879 22144 ft 415 kts 149°
2026-04-22 02:11 -3.20901 105.25321 22530 ft 418 kts 149°
2026-04-22 02:11 -3.23425 105.26769 22909 ft 420 kts 149°
2026-04-22 02:12 -3.25909 105.28321 23273 ft 422 kts 143°
2026-04-22 02:12 -3.28197 105.30185 23627 ft 424 kts 139°
2026-04-22 02:12 -3.30464 105.32081 23973 ft 427 kts 140°
2026-04-22 02:12 -3.32753 105.33997 24312 ft 429 kts 139°
2026-04-22 02:13 -3.35051 105.35919 24664 ft 432 kts 140°
2026-04-22 02:13 -3.37357 105.37845 25000 ft 434 kts 140°
2026-04-22 02:13 -3.39678 105.39786 25338 ft 436 kts 140°
2026-04-22 02:13 -3.42011 105.41735 25662 ft 438 kts 140°
2026-04-22 02:14 -3.44327 105.43670 25976 ft 440 kts 140°
2026-04-22 02:14 -3.46683 105.45636 26287 ft 442 kts 140°
2026-04-22 02:14 -3.49050 105.47609 26598 ft 443 kts 140°
2026-04-22 02:14 -3.51425 105.49590 26842 ft 445 kts 140°
2026-04-22 02:15 -3.53778 105.51557 26894 ft 436 kts 140°
2026-04-22 02:15 -3.56092 105.53495 26897 ft 431 kts 140°
2026-04-22 02:15 -3.58383 105.55415 26897 ft 429 kts 140°
2026-04-22 02:15 -3.60671 105.57328 26898 ft 428 kts 140°
2026-04-22 02:16 -3.62958 105.59237 26898 ft 428 kts 140°
2026-04-22 02:16 -3.65240 105.61141 26896 ft 428 kts 140°
2026-04-22 02:16 -3.67531 105.63052 26896 ft 428 kts 140°
2026-04-22 02:16 -3.69817 105.64960 26896 ft 428 kts 140°
2026-04-22 02:17 -3.72103 105.66869 26896 ft 428 kts 140°
2026-04-22 02:17 -3.74384 105.68773 26895 ft 428 kts 140°
2026-04-22 02:17 -3.76668 105.70680 26896 ft 428 kts 140°
2026-04-22 02:17 -3.78952 105.72588 26895 ft 428 kts 140°
2026-04-22 02:18 -3.81236 105.74498 26892 ft 428 kts 140°
2026-04-22 02:18 -3.83519 105.76409 26894 ft 428 kts 140°
2026-04-22 02:18 -3.85802 105.78319 26893 ft 428 kts 140°
2026-04-22 02:18 -3.88092 105.80232 26895 ft 428 kts 140°
2026-04-22 02:19 -3.90374 105.82136 26894 ft 428 kts 140°
2026-04-22 02:19 -3.92660 105.84042 26892 ft 428 kts 140°
2026-04-22 02:19 -3.94951 105.85954 26892 ft 428 kts 140°
2026-04-22 02:19 -3.97231 105.87859 26892 ft 428 kts 140°
2026-04-22 02:20 -3.99516 105.89768 26893 ft 428 kts 140°
2026-04-22 02:20 -4.01802 105.91685 26891 ft 428 kts 140°
2026-04-22 02:20 -4.04079 105.93594 26891 ft 428 kts 140°
2026-04-22 02:20 -4.06365 105.95512 26891 ft 428 kts 140°
2026-04-22 02:21 -4.08643 105.97419 26893 ft 428 kts 140°
2026-04-22 02:21 -4.10928 105.99328 26891 ft 428 kts 140°
2026-04-22 02:21 -4.13214 106.01234 26892 ft 428 kts 140°
2026-04-22 02:21 -4.15501 106.03140 26893 ft 428 kts 140°
2026-04-22 02:22 -4.17792 106.05052 26891 ft 428 kts 140°
2026-04-22 02:22 -4.20073 106.06958 26894 ft 428 kts 140°
2026-04-22 02:22 -4.22357 106.08870 26892 ft 428 kts 140°
2026-04-22 02:22 -4.24641 106.10783 26893 ft 428 kts 140°
2026-04-22 02:23 -4.26926 106.12694 26897 ft 428 kts 140°
2026-04-22 02:23 -4.29209 106.14606 26894 ft 428 kts 140°
2026-04-22 02:23 -4.31493 106.16518 26895 ft 428 kts 140°
2026-04-22 02:23 -4.33777 106.18429 26894 ft 428 kts 140°
2026-04-22 02:24 -4.36061 106.20338 26894 ft 428 kts 140°
2026-04-22 02:24 -4.38344 106.22249 26895 ft 428 kts 140°
2026-04-22 02:24 -4.40598 106.24137 26894 ft 427 kts 140°
2026-04-22 02:24 -4.42878 106.26051 26894 ft 428 kts 140°
2026-04-22 02:25 -4.45186 106.27986 26893 ft 427 kts 140°
2026-04-22 02:25 -4.47468 106.29895 26892 ft 427 kts 140°
2026-04-22 02:25 -4.49724 106.31781 26891 ft 427 kts 140°
2026-04-22 02:25 -4.52000 106.33688 26891 ft 427 kts 140°
2026-04-22 02:26 -4.54280 106.35601 26891 ft 427 kts 140°
2026-04-22 02:26 -4.56563 106.37519 26889 ft 427 kts 140°
2026-04-22 02:26 -4.58839 106.39428 26889 ft 427 kts 140°
2026-04-22 02:26 -4.61121 106.41338 26894 ft 427 kts 140°
2026-04-22 02:27 -4.63403 106.43248 26892 ft 427 kts 140°
2026-04-22 02:27 -4.65690 106.45161 26890 ft 427 kts 140°
2026-04-22 02:27 -4.67967 106.47068 26891 ft 427 kts 140°
2026-04-22 02:27 -4.70254 106.48984 26886 ft 429 kts 140°
2026-04-22 02:28 -4.72565 106.50923 26898 ft 439 kts 140°
2026-04-22 02:28 -4.74917 106.52901 26897 ft 443 kts 140°
2026-04-22 02:28 -4.77284 106.54886 26897 ft 444 kts 140°
2026-04-22 02:28 -4.79656 106.56872 26897 ft 444 kts 140°
2026-04-22 02:29 -4.82032 106.58864 26896 ft 444 kts 140°
2026-04-22 02:29 -4.84398 106.60850 26895 ft 444 kts 140°
2026-04-22 02:29 -4.86929 106.62636 26895 ft 445 kts 151°
2026-04-22 02:29 -4.89720 106.63967 26896 ft 446 kts 155°
2026-04-22 02:30 -4.92544 106.65250 26896 ft 446 kts 155°
2026-04-22 02:30 -4.95367 106.66535 26894 ft 446 kts 155°
2026-04-22 02:30 -4.98188 106.67823 26893 ft 445 kts 155°
2026-04-22 02:30 -5.01008 106.69113 26895 ft 445 kts 155°
2026-04-22 02:31 -5.03826 106.70403 26894 ft 445 kts 155°
2026-04-22 02:31 -5.06646 106.71691 26895 ft 445 kts 155°
2026-04-22 02:31 -5.09466 106.72979 26894 ft 445 kts 155°
2026-04-22 02:31 -5.12285 106.74268 26894 ft 445 kts 155°
2026-04-22 02:32 -5.15105 106.75558 26895 ft 445 kts 155°
2026-04-22 02:32 -5.17925 106.76849 26894 ft 446 kts 155°
2026-04-22 02:32 -5.20748 106.78136 26894 ft 446 kts 155°
2026-04-22 02:32 -5.23574 106.79417 26894 ft 446 kts 155°
2026-04-22 02:33 -5.26401 106.80694 26895 ft 446 kts 155°
2026-04-22 02:33 -5.29230 106.81968 26893 ft 446 kts 155°
2026-04-22 02:33 -5.32058 106.83243 26892 ft 446 kts 155°
2026-04-22 02:33 -5.34886 106.84522 26892 ft 446 kts 155°
2026-04-22 02:34 -5.37712 106.85802 26892 ft 446 kts 155°
2026-04-22 02:34 -5.40540 106.87083 26893 ft 446 kts 155°
2026-04-22 02:34 -5.43369 106.88364 26893 ft 446 kts 155°
2026-04-22 02:34 -5.46213 106.89612 26897 ft 446 kts 160°
2026-04-22 02:35 -5.49255 106.90170 26890 ft 446 kts 178°
2026-04-22 02:35 -5.52362 106.90215 26893 ft 447 kts 180°
2026-04-22 02:35 -5.55471 106.90178 26885 ft 447 kts 181°
2026-04-22 02:35 -5.58581 106.90096 26881 ft 447 kts 181°
2026-04-22 02:36 -5.61693 106.90001 26883 ft 447 kts 181°
2026-04-22 02:36 -5.64806 106.89916 26887 ft 448 kts 181°
2026-04-22 02:36 -5.67921 106.89849 26878 ft 448 kts 180°
2026-04-22 02:36 -5.71035 106.89797 26882 ft 448 kts 180°
2026-04-22 02:37 -5.74133 106.89751 26887 ft 439 kts 180°
2026-04-22 02:37 -5.77120 106.89697 26894 ft 420 kts 181°
2026-04-22 02:37 -5.79980 106.89637 26894 ft 402 kts 181°
2026-04-22 02:37 -5.82721 106.89578 26895 ft 386 kts 181°
2026-04-22 02:38 -5.85352 106.89521 26895 ft 370 kts 181°
2026-04-22 02:38 -5.87877 106.89468 26895 ft 356 kts 180°
2026-04-22 02:38 -5.90324 106.89418 26896 ft 349 kts 180°
2026-04-22 02:38 -5.92747 106.89368 26896 ft 348 kts 181°
2026-04-22 02:39 -5.95159 106.89255 26898 ft 347 kts 190°
2026-04-22 02:39 -5.97399 106.88406 26900 ft 346 kts 210°
2026-04-22 02:39 -5.99386 106.87037 26898 ft 347 kts 219°
2026-04-22 02:39 -6.01204 106.85440 26907 ft 347 kts 223°
2026-04-22 02:40 -6.02946 106.83755 26903 ft 348 kts 225°
2026-04-22 02:40 -6.04492 106.81900 26899 ft 346 kts 243°
2026-04-22 02:40 -6.05519 106.79713 26908 ft 347 kts 248°
2026-04-22 02:40 -6.06415 106.77463 26907 ft 347 kts 250°
2026-04-22 02:41 -6.07198 106.75174 26892 ft 346 kts 260°
2026-04-22 02:41 -6.07276 106.72802 26897 ft 351 kts 282°
2026-04-22 02:41 -6.06445 106.70470 26896 ft 362 kts 303°
2026-04-22 02:41 -6.04786 106.68539 26901 ft 372 kts 323°
2026-04-22 02:42 -6.02537 106.67191 26898 ft 381 kts 334°
2026-04-22 02:42 -6.00125 106.66054 26896 ft 384 kts 339°
2026-04-22 02:42 -5.97621 106.65124 26682 ft 383 kts 341°
2026-04-22 02:42 -5.95118 106.64238 26197 ft 380 kts 341°
2026-04-22 02:43 -5.92595 106.63487 25717 ft 377 kts 353°
2026-04-22 02:43 -5.89995 106.63335 25241 ft 374 kts
2026-04-22 02:43 -5.87403 106.63307 24768 ft 371 kts
2026-04-22 02:43 -5.84827 106.63285 24297 ft 369 kts
2026-04-22 02:44 -5.82268 106.63261 23844 ft 367 kts
2026-04-22 02:44 -5.79729 106.63315 23399 ft 364 kts
2026-04-22 02:44 -5.77231 106.63458 23105 ft 357 kts
2026-04-22 02:44 -5.74765 106.63607 22727 ft 353 kts
2026-04-22 02:45 -5.72326 106.63756 22354 ft 349 kts
2026-04-22 02:45 -5.69912 106.63903 21977 ft 346 kts
2026-04-22 02:45 -5.67520 106.64048 21618 ft 343 kts
2026-04-22 02:45 -5.65147 106.64190 21229 ft 340 kts
2026-04-22 02:46 -5.62791 106.64332 20851 ft 338 kts
2026-04-22 02:46 -5.60449 106.64471 20476 ft 336 kts
2026-04-22 02:46 -5.58127 106.64604 20044 ft 332 kts
2026-04-22 02:46 -5.55827 106.64734 19567 ft 330 kts
2026-04-22 02:47 -5.53545 106.64863 19090 ft 327 kts
2026-04-22 02:47 -5.51281 106.64990 18614 ft 325 kts
2026-04-22 02:47 -5.49034 106.65115 18144 ft 322 kts
2026-04-22 02:47 -5.46805 106.65239 17652 ft 320 kts
2026-04-22 02:48 -5.44592 106.65360 17186 ft 317 kts
2026-04-22 02:48 -5.43136 106.65440 16864 ft 316 kts
2026-04-22 02:48 -5.40951 106.65560 16322 ft 313 kts
2026-04-22 02:48 -5.38817 106.65934 15880 ft 311 kts 22°
2026-04-22 02:49 -5.36968 106.67000 15635 ft 305 kts 42°
2026-04-22 02:49 -5.35648 106.68625 15377 ft 300 kts 63°
2026-04-22 02:49 -5.35008 106.70588 15131 ft 296 kts 83°
2026-04-22 02:49 -5.35094 106.72626 14896 ft 292 kts 103°
2026-04-22 02:50 -5.35862 106.74499 14669 ft 291 kts 122°
2026-04-22 02:50 -5.37046 106.76147 14366 ft 291 kts 126°
2026-04-22 02:50 -5.38249 106.77781 14043 ft 291 kts 126°
2026-04-22 02:50 -5.39447 106.79409 13723 ft 290 kts 125°
2026-04-22 02:51 -5.40645 106.81040 13403 ft 290 kts 125°
2026-04-22 02:51 -5.41837 106.82663 13174 ft 287 kts 125°
2026-04-22 02:51 -5.43014 106.84268 12884 ft 286 kts 125°
2026-04-22 02:51 -5.44191 106.85869 12571 ft 285 kts 126°
2026-04-22 02:52 -5.45364 106.87465 12259 ft 284 kts 127°
2026-04-22 02:52 -5.46760 106.88859 11944 ft 283 kts 143°
2026-04-22 02:52 -5.48496 106.89775 11604 ft 284 kts 161°
2026-04-22 02:52 -5.50446 106.90136 11199 ft 287 kts 178°
2026-04-22 02:53 -5.52454 106.90104 10809 ft 289 kts 180°
2026-04-22 02:53 -5.54469 106.90065 10409 ft 290 kts 180°
2026-04-22 02:53 -5.56489 106.90031 10017 ft 291 kts 180°
2026-04-22 02:53 -5.58512 106.90001 9613 ft 291 kts 180°
2026-04-22 02:54 -5.60525 106.89973 9254 ft 289 kts 180°
2026-04-22 02:54 -5.62534 106.89945 8910 ft 287 kts 181°
2026-04-22 02:54 -5.64520 106.89917 8561 ft 285 kts 181°
2026-04-22 02:54 -5.66497 106.89889 8214 ft 282 kts 181°
2026-04-22 02:55 -5.68449 106.89859 7872 ft 279 kts 181°
2026-04-22 02:55 -5.70354 106.89829 7536 ft 276 kts 181°
2026-04-22 02:55 -5.72265 106.89800 7209 ft 273 kts 181°
2026-04-22 02:55 -5.74145 106.89765 6936 ft 267 kts 181°
2026-04-22 02:56 -5.75989 106.89725 6631 ft 263 kts 181°
2026-04-22 02:56 -5.77802 106.89686 6324 ft 259 kts 181°
2026-04-22 02:56 -5.79594 106.89647 6018 ft 256 kts 181°
2026-04-22 02:56 -5.81371 106.89608 5712 ft 255 kts 181°
2026-04-22 02:57 -5.83138 106.89570 5407 ft 254 kts 181°
2026-04-22 02:57 -5.84897 106.89533 5112 ft 253 kts 182°
2026-04-22 02:57 -5.86664 106.89497 4817 ft 252 kts 181°
2026-04-22 02:57 -5.88406 106.89457 4500 ft 249 kts 182°
2026-04-22 02:58 -5.90134 106.89427 4195 ft 247 kts 181°
2026-04-22 02:58 -5.91857 106.89396 3926 ft 246 kts 181°
2026-04-22 02:58 -5.93556 106.89366 3661 ft 240 kts 182°
2026-04-22 02:58 -5.95234 106.89310 3372 ft 237 kts 189°
2026-04-22 02:59 -5.96725 106.88736 3117 ft 230 kts 216°
2026-04-22 02:59 -5.97941 106.87705 2955 ft 224 kts 221°
2026-04-22 02:59 -5.99097 106.86695 2819 ft 222 kts 221°
2026-04-22 02:59 -6.00261 106.85686 2671 ft 218 kts 221°
2026-04-22 03:00 -6.01398 106.84709 2516 ft 211 kts 221°
2026-04-22 03:00 -6.02495 106.83756 2368 ft 205 kts 221°
2026-04-22 03:00 -6.03558 106.82833 2244 ft 200 kts 221°
2026-04-22 03:00 -6.04451 106.81791 2149 ft 196 kts 242°
2026-04-22 03:01 -6.04982 106.80538 2128 ft 194 kts 249°
2026-04-22 03:01 -6.05486 106.79272 2127 ft 196 kts 249°
2026-04-22 03:01 -6.05990 106.78004 2116 ft 195 kts 249°
2026-04-22 03:01 -6.06492 106.76742 2109 ft 194 kts 248°
2026-04-22 03:02 -6.07002 106.75478 1891 ft 196 kts 248°
2026-04-22 03:02 -6.07498 106.74241 1633 ft 185 kts 249°
2026-04-22 03:02 -6.07960 106.73081 1366 ft 173 kts 249°
2026-04-22 03:02 -6.08390 106.72000 1146 ft 161 kts 249°
2026-04-22 03:03 -6.08789 106.70992 944 ft 150 kts 250°
2026-04-22 03:03 -6.09170 106.70034 743 ft 146 kts 249°
2026-04-22 03:03 -6.09546 106.69092 549 ft 145 kts 249°
2026-04-22 03:03 -6.09924 106.68150 335 ft 145 kts 248°
2026-04-22 03:04 -6.10294 106.67207 140 ft 145 kts 249°
2026-04-22 03:04 -6.10658 106.66284 42 ft 134 kts 249°
2026-04-22 03:04 -6.10950 106.65552 43 ft 88 kts 248°
2026-04-22 03:04 -6.11107 106.65156 40 ft 36 kts 248°
2026-04-22 03:05 -6.11195 106.64934 38 ft 20 kts 248°
2026-04-22 03:05 -6.11273 106.64816 42 ft 21 kts 221°
2026-04-22 03:05 -6.11388 106.64734 40 ft 16 kts 214°
2026-04-22 03:05 -6.11496 106.64721 39 ft 17 kts 155°
2026-04-22 03:06 -6.11593 106.64765 40 ft 11 kts 159°
2026-04-22 03:06 -6.11654 106.64789 42 ft 8 kts 159°
2026-04-22 03:06 -6.11716 106.64798 44 ft 11 kts 190°
2026-04-22 03:06 -6.11778 106.64756 43 ft 13 kts 226°
2026-04-22 03:07 -6.11859 106.64680 42 ft 13 kts 218°
2026-04-22 03:07 -6.11929 106.64642 40 ft 11 kts 175°
2026-04-22 03:07 -6.12003 106.64669 39 ft 11 kts 158°
2026-04-22 03:07 -6.12072 106.64671 38 ft 10 kts 217°
2026-04-22 03:08 -6.12099 106.64616 38 ft 8 kts 249°
2026-04-22 03:08 -6.12124 106.64552 38 ft 11 kts 248°
2026-04-22 03:08 -6.12154 106.64478 38 ft 11 kts 248°
2026-04-22 03:08 -6.12207 106.64447 38 ft 10 kts 153°
2026-04-22 03:09 -6.12269 106.64472 38 ft 12 kts 159°
2026-04-22 03:09 -6.12368 106.64511 38 ft 16 kts 159°
2026-04-22 03:09 -6.12473 106.64552 38 ft 16 kts 158°
2026-04-22 03:09 -6.12580 106.64595 38 ft 17 kts 159°
2026-04-22 03:10 -6.12696 106.64640 38 ft 20 kts 158°
2026-04-22 03:10 -6.12829 106.64694 47 ft 20 kts 158°
2026-04-22 03:10 -6.12947 106.64741 56 ft 16 kts 158°
2026-04-22 03:10 -6.13047 106.64782 46 ft 15 kts 158°
2026-04-22 03:11 -6.13139 106.64838 38 ft 15 kts 114°
2026-04-22 03:11 -6.13114 106.64933 38 ft 14 kts 69°
2026-04-22 03:11 -6.13092 106.64994 38 ft 7 kts 78°
2026-04-22 03:11 -6.13109 106.65033 38 ft 7 kts 134°
2026-04-22 03:12 -6.13154 106.65056 38 ft 3 kts 156°
2026-04-22 03:12 -6.13185 106.65105 38 ft 6 kts 73°
2026-04-22 03:12 -6.13178 106.65129 38 ft 2 kts 72°
2026-04-22 03:13 -6.13176 106.65135 36 ft 0 kts 72°